[[{"header":{"parameterUnit":"m.s-1","parameterCategory":1,"la1":30.2991,"la2":30.254,"lo1":-89.0895,"lo2":-89.0444,"dy":0.0017,"dx":0.0017,"nx":28,"ny":28,"refTime":"2024-06-05T21:00:00:Z","depth":0,"parameterNumber":2,"parameterNumberName":"U-component_of_WINDS"},"data":[0,0,0,0,0,0,0,0,0,0,0,0,0,0,0,0,0,0,0,0,0,0,0,0,0,0,0,0,0,0,0,0,0,0,0,0,0,0,0,0,0,0,0,0,0,0,0,0,0,0,0,0,0,0,0,0,0,0,3.6778,3.6779,0,3.6891,3.6893,3.6894,3.6855,3.6852,3.685,3.6847,3.6967,3.6972,3.6978,0,0,0,0,0,0,0,0,0,0,0,0,0,3.6529,3.6534,3.6778,3.6779,3.6781,3.6891,3.6893,3.6894,3.6855,3.6852,3.6849,3.6846,3.6965,3.6972,3.6978,0,0,0,0,0,0,0,0,0,0,0,0,0,3.664,3.6536,3.6778,3.6775,3.6775,3.6891,3.6893,3.6895,3.6856,3.6852,3.6848,3.6845,3.6963,3.6971,3.6979,3.7106,0,0,3.7004,3.7008,0,0,0,0,0,0,0,0,3.6633,3.6649,3.6774,3.6775,3.6776,3.6855,3.6849,3.6966,3.6857,3.6825,3.6847,3.6843,3.6933,3.6943,3.6973,3.7111,3.7116,3.7005,3.701,3.7014,3.7016,0,0,0,0,0,0,0,3.6626,3.6644,3.6823,3.6775,3.6777,3.6768,3.6779,3.6871,3.6899,3.6828,3.6825,3.6839,3.6933,3.6965,3.6976,3.7118,3.7005,3.7012,3.7017,3.7021,3.7364,3.7367,0,0,0,0,0,0,3.6617,3.6638,3.6819,3.6826,3.6694,3.6775,3.6788,3.6834,3.6898,3.6904,3.6842,3.6837,3.6953,3.6966,3.698,3.713,3.7014,3.7021,3.7026,3.7359,3.7364,3.7369,0,0,0,0,0,0,3.6612,3.6634,3.6815,3.6731,3.6754,3.6784,3.6835,3.6838,3.687,3.6909,3.6914,3.687,3.695,3.6968,3.7074,3.7134,3.7025,3.7033,3.7355,3.7361,3.7367,3.7434,0,0,0,0,0,0,3.6605,3.6632,3.668,3.6733,3.6758,3.6907,3.6839,3.6843,3.6884,3.6878,3.6936,3.6942,3.6949,3.7062,3.7082,3.7143,3.7039,3.7349,3.7357,3.7365,3.7426,3.7441,3.7454,0,0,0,0,0,3.6596,3.6696,3.6683,3.6705,3.6819,3.691,3.6925,3.693,3.6889,3.6937,3.6962,3.694,3.7124,3.7073,3.7096,3.716,3.7346,3.7355,3.7364,3.742,3.7439,3.7454,0,0,0,0,0,0,3.6651,3.6703,3.6689,3.6808,3.6855,3.6903,3.6965,3.695,3.701,3.7002,3.7007,3.702,3.7128,3.7155,3.7097,3.7285,3.7229,3.7243,3.7264,3.7281,3.7295,3.7286,3.7046,0,0,0,0,0,3.6677,3.6746,3.6788,3.6889,3.6913,3.6935,3.6975,3.6975,3.7024,3.7044,3.7076,3.7125,3.7194,3.7239,3.7305,3.743,3.7442,3.7486,3.75,3.7511,3.7523,3.759,3.7609,3.74,3.7399,3.7399,0,0,3.6732,3.6768,3.6812,3.6901,3.6937,3.7009,3.6952,3.7031,3.7084,3.7056,3.7157,3.7183,3.7238,3.7353,3.7406,3.7379,3.7584,3.7523,3.7532,3.7538,3.7601,3.7621,3.7639,3.7406,3.7405,3.7404,0,0,3.6867,3.6902,3.6989,3.7026,3.7081,3.7095,3.7116,3.7166,3.7181,3.7283,3.7262,3.7326,3.7445,3.7484,3.752,3.7669,3.765,3.769,3.7764,3.7828,3.7845,3.786,3.7911,3.793,3.7702,3.7702,3.7703,0,3.6928,3.7035,3.7037,3.7116,3.7156,3.7132,3.722,3.7256,3.733,3.7358,3.7326,3.7473,3.7509,3.7632,3.7668,3.7699,3.7722,3.7683,3.7842,3.7857,3.7871,3.792,3.794,3.7707,3.7706,3.7706,3.7705,0,3.7106,3.718,3.7244,3.7314,3.7361,3.7445,3.7459,3.7506,3.7502,3.7519,3.7621,3.7663,3.7736,3.7765,3.7762,3.7888,3.7869,3.784,3.7784,3.7895,3.7941,3.796,3.7713,3.7711,3.771,3.7709,0,0,3.7281,3.7349,3.7372,3.7402,3.746,3.7518,3.76,3.767,3.771,3.7761,3.783,3.793,3.7903,3.7943,3.7944,3.8001,3.8114,3.7965,3.7966,3.799,3.8254,3.8275,3.8297,3.8103,3.8106,3.8109,3.8249,0,3.742,3.7563,3.7566,3.7697,3.7765,3.7743,3.7814,3.7858,3.7875,3.7936,3.7956,3.8026,3.7986,3.8009,3.8065,3.8089,3.8167,3.8079,3.8167,3.817,3.8152,3.8321,3.8344,3.8474,3.8267,3.827,3.8273,0,3.7601,3.7656,3.7794,3.784,3.7869,3.7933,3.7995,3.8054,3.8102,3.8111,3.8155,3.8148,3.8232,3.8173,3.8288,3.8228,3.8264,3.8281,3.8286,3.8294,3.8227,3.8333,3.8516,3.8535,3.8302,3.8299,3.8297,0,3.7712,3.7821,3.7917,3.7944,3.8001,3.8046,3.8072,3.8117,3.8158,3.8213,3.824,3.8305,3.8341,3.8391,3.8401,3.8358,3.8517,3.8459,3.8526,3.8526,3.856,3.8558,3.8751,3.8585,3.8585,3.8585,3.8584,0,3.7867,3.7952,3.7968,3.8027,3.8121,3.8123,3.8217,3.8239,3.8279,3.8342,3.8327,3.8387,3.8397,3.8459,3.8467,3.8561,3.8578,3.8587,3.8588,3.8588,3.8586,3.8611,3.8602,3.859,3.8589,3.8588,3.8587,0,3.8007,3.8021,3.8124,3.8168,3.8181,3.8249,3.8287,3.8343,3.8359,3.8439,3.8458,3.8483,3.8555,3.8569,3.8656,3.8661,3.8772,3.8765,3.8755,3.8754,3.882,3.8813,3.9035,3.9063,3.888,3.8882,3.8883,0,3.8104,3.8169,3.8219,3.8259,3.8287,3.8353,3.8393,3.8399,3.8442,3.8501,3.855,3.862,3.8676,3.8793,3.8819,3.8884,3.8878,3.8951,3.8888,3.8885,3.8877,3.8873,3.8879,3.8963,3.8965,3.8966,3.8968,0,3.8275,3.8278,3.8337,3.8398,3.8447,3.8496,3.8543,3.8577,3.8588,3.8638,3.871,3.8753,3.884,3.8909,3.8974,3.9001,3.8987,3.8987,3.9006,3.9006,3.8997,3.9001,3.8787,3.8982,3.8981,3.898,3.8979,3.8978,3.8396,3.8451,3.8494,3.856,3.8595,3.8638,3.8693,3.8714,3.8774,3.8844,3.8844,3.8922,3.8968,3.9053,3.9085,3.9147,3.9124,3.9152,3.9158,3.9165,3.917,3.8988,3.9159,3.9158,3.9158,3.9158,3.9157,0,3.8564,3.859,3.8651,3.8715,3.8767,3.8747,3.8797,3.8841,3.891,3.8953,3.9008,3.9091,3.9158,3.9189,3.9255,3.9298,3.9293,3.9315,3.9312,3.9318,3.9188,3.9164,3.9318,3.9318,3.9318,3.9318,3.9318,3.9318,3.8658,3.8749,3.8758,3.8866,3.8892,3.8968,3.8998,3.9038,3.9072,3.9164,3.9219,3.9238,3.9276,3.9344,3.9405,3.9412,3.9437,3.9462,3.9466,3.9344,3.9327,3.9312,3.929,3.9468,3.9468,3.9591,3.9592,3.9593]},{"header":{"parameterUnit":"m.s-1","parameterCategory":1,"la1":30.2991,"la2":30.254,"lo1":-89.0895,"lo2":-89.0444,"dy":0.0017,"dx":0.0017,"nx":28,"ny":28,"refTime":"2024-06-05T21:00:00:Z","depth":0,"parameterNumber":3,"parameterNumberName":"V-component_of_WINDS"},"data":[0,0,0,0,0,0,0,0,0,0,0,0,0,0,0,0,0,0,0,0,0,0,0,0,0,0,0,0,0,0,0,0,0,0,0,0,0,0,0,0,0,0,0,0,0,0,0,0,0,0,0,0,0,0,0,0,0,0,3.1016,3.1018,0,3.118,3.1182,3.1184,3.1205,3.1203,3.1202,3.12,3.1368,3.1373,3.1379,0,0,0,0,0,0,0,0,0,0,0,0,0,3.072,3.0725,3.1016,3.1018,3.102,3.118,3.1182,3.1184,3.1205,3.1203,3.1201,3.12,3.1366,3.1373,3.138,0,0,0,0,0,0,0,0,0,0,0,0,0,3.0863,3.0727,3.1016,3.105,3.1055,3.1179,3.1182,3.1185,3.1206,3.1203,3.1201,3.1199,3.1363,3.1372,3.1381,3.1483,0,0,3.1408,3.1412,0,0,0,0,0,0,0,0,3.0855,3.0874,3.1043,3.1048,3.1053,3.117,3.1139,3.1285,3.1206,3.1148,3.12,3.1198,3.1304,3.1317,3.1353,3.149,3.1498,3.1409,3.1414,3.1418,3.142,0,0,0,0,0,0,0,3.0845,3.0867,3.1081,3.1045,3.1052,3.1057,3.1074,3.1167,3.1237,3.1153,3.1155,3.1174,3.1306,3.1344,3.1357,3.15,3.1408,3.1416,3.1422,3.1425,3.1729,3.1732,0,0,0,0,0,0,3.0829,3.0858,3.1076,3.1086,3.0946,3.1064,3.1084,3.1135,3.1236,3.1249,3.1176,3.1175,3.133,3.1347,3.1363,3.149,3.1418,3.1426,3.1431,3.1726,3.173,3.1733,0,0,0,0,0,0,3.0822,3.0848,3.1069,3.0973,3.1001,3.1072,3.1129,3.1139,3.1178,3.1254,3.1266,3.1203,3.1329,3.1351,3.1453,3.1496,3.143,3.1438,3.1723,3.1728,3.1731,3.1743,0,0,0,0,0,0,3.0814,3.0845,3.0885,3.0973,3.1006,3.1157,3.1131,3.1144,3.1193,3.1193,3.1282,3.1294,3.1329,3.1439,3.1462,3.1507,3.1445,3.172,3.1725,3.173,3.1739,3.1747,3.1753,0,0,0,0,0,3.0803,3.0882,3.0887,3.0913,3.1058,3.1159,3.1178,3.1216,3.1196,3.1237,3.1285,3.1291,3.1487,3.145,3.1475,3.1523,3.1717,3.1724,3.173,3.1736,3.1745,3.1753,0,0,0,0,0,0,3.0797,3.0894,3.0901,3.1011,3.1076,3.1162,3.1215,3.1225,3.1298,3.1295,3.1339,3.1359,3.1459,3.1501,3.1458,3.1627,3.16,3.1612,3.1596,3.1606,3.1613,3.1601,3.1452,0,0,0,0,0,3.0808,3.0883,3.0963,3.1052,3.1085,3.1144,3.119,3.1214,3.1283,3.1311,3.1367,3.1434,3.1511,3.1561,3.1635,3.1745,3.1764,3.179,3.1797,3.1803,3.1813,3.1874,3.1886,3.1753,3.1753,3.1753,0,0,3.0833,3.0895,3.0939,3.1053,3.1106,3.1182,3.1167,3.1248,3.1305,3.1323,3.1424,3.1467,3.1545,3.1651,3.17,3.1689,3.1854,3.1811,3.1815,3.1822,3.1881,3.1894,3.1905,3.1757,3.1757,3.1756,0,0,3.0916,3.097,3.1051,3.1105,3.1186,3.1225,3.1244,3.1328,3.1358,3.1459,3.1474,3.1542,3.1673,3.1728,3.1773,3.1876,3.1885,3.1899,3.1938,3.1997,3.2007,3.2017,3.2054,3.2067,3.1908,3.1908,3.1908,0,3.0936,3.1051,3.109,3.1171,3.122,3.1241,3.1322,3.1372,3.1474,3.1507,3.1493,3.1658,3.1712,3.1831,3.1856,3.1892,3.1915,3.189,3.2002,3.2012,3.2022,3.2058,3.2072,3.191,3.191,3.1909,3.1909,0,3.1072,3.1151,3.1206,3.1304,3.1359,3.144,3.1491,3.1542,3.1561,3.1601,3.1704,3.1769,3.1857,3.1887,3.1906,3.2009,3.2,3.1993,3.1967,3.2035,3.207,3.2084,3.1912,3.1911,3.1911,3.191,0,0,3.1157,3.1275,3.1294,3.1339,3.143,3.1492,3.1573,3.1659,3.1703,3.1772,3.1841,3.1951,3.1946,3.1997,3.2022,3.2074,3.2152,3.2061,3.2064,3.2076,3.2269,3.2274,3.2289,3.2157,3.216,3.2162,3.2263,0,3.1251,3.1396,3.1434,3.1558,3.1632,3.1651,3.1722,3.1785,3.1824,3.1893,3.1936,3.2013,3.2,3.2031,3.2083,3.2131,3.2191,3.2124,3.2222,3.2225,3.2203,3.2307,3.2313,3.2405,3.2277,3.2279,3.2281,0,3.138,3.1452,3.1584,3.1665,3.1697,3.176,3.1842,3.1907,3.1979,3.2004,3.2061,3.2081,3.2166,3.2135,3.2252,3.2206,3.2248,3.2278,3.2282,3.2293,3.2257,3.2322,3.2435,3.2449,3.2302,3.23,3.2299,0,3.143,3.1559,3.1655,3.1692,3.1789,3.1833,3.1875,3.1945,3.1994,3.2066,3.2098,3.2178,3.2222,3.2284,3.2325,3.2299,3.244,3.2412,3.2463,3.2462,3.2492,3.249,3.2614,3.2518,3.2518,3.2518,3.2517,0,3.1531,3.1611,3.1678,3.1737,3.1826,3.1868,3.1956,3.1998,3.206,3.2127,3.2149,3.2211,3.2262,3.2331,3.2364,3.2456,3.2476,3.2499,3.2506,3.2497,3.2494,3.2526,3.2521,3.2521,3.2521,3.252,3.2519,0,3.1602,3.165,3.1755,3.1838,3.1861,3.1923,3.1994,3.2052,3.2091,3.2176,3.2198,3.226,3.2343,3.239,3.2494,3.2516,3.2619,3.2624,3.2595,3.2599,3.2648,3.2643,3.2797,3.282,3.2708,3.2709,3.2709,0,3.1664,3.1726,3.1815,3.1862,3.1905,3.198,3.203,3.2073,3.2125,3.2211,3.2259,3.2343,3.2412,3.2543,3.2598,3.2677,3.2684,3.2733,3.2696,3.2685,3.2686,3.2682,3.2689,3.2739,3.274,3.2741,3.2742,0,3.1769,3.179,3.1862,3.1943,3.2002,3.2068,3.2133,3.217,3.2224,3.228,3.2365,3.2419,3.2526,3.2609,3.2693,3.2736,3.2748,3.2753,3.2769,3.2761,3.2742,3.2753,3.2613,3.2749,3.2749,3.2748,3.2748,3.2747,3.1838,3.1894,3.1965,3.2045,3.2098,3.2159,3.2217,3.2264,3.2335,3.2425,3.2446,3.2535,3.2605,3.272,3.2765,3.2835,3.2827,3.285,3.2856,3.2861,3.2863,3.273,3.2851,3.2851,3.285,3.285,3.285,0,3.1945,3.1992,3.2064,3.2155,3.2217,3.2223,3.2295,3.2347,3.2426,3.249,3.2558,3.2655,3.2736,3.2796,3.2879,3.2924,3.2931,3.2944,3.2941,3.2951,3.2866,3.2844,3.2936,3.2936,3.2936,3.2936,3.2936,3.2936,3.2008,3.2103,3.2131,3.2253,3.2299,3.2387,3.2428,3.2483,3.2535,3.2643,3.271,3.2749,3.2812,3.2899,3.2973,3.2989,3.3018,3.303,3.3047,3.2966,3.2957,3.2948,3.2928,3.3036,3.3036,3.3127,3.3127,3.3128]}]]